Cross City, FL

12:19 AM EST on December 08, 2019 (GMT -0500)
Cross City

Weather History for KCTY - November, 2019

Change the Weather History Date:

Thursday, November 14, 2019

  Actual Average Record
Temperature  
Mean Temperature 54 °F 63 °F  
Max Temperature 61 °F 76 °F 82 °F (2008)
Min Temperature 46 °F 50 °F 32 °F (2003)
Degree Days  
Heating Degree Days 11    
Month to date heating degree days 61  
Since 1 July heating degree days 65  
Cooling Degree Days 0    
Month to date cooling degree days 33  
Year to date cooling degree days 3136  
Growing Degree Days 2 (Base 50)    
Moisture  
Dew Point 49 °F    
Average Humidity 89    
Maximum Humidity 100    
Minimum Humidity 70    
Precipitation  
Precipitation 1.14 in 0.09 in 0.32 in (2018)
Month to date precipitation 1.32 1.06  
Year to date precipitation 51.81 44.29  
Sea Level Pressure  
Sea Level Pressure 30.14 in    
Wind  
Wind Speed 9 mph (NNE)    
Max Wind Speed 13 mph    
Max Gust Speed 17 mph    
Visibility 8 miles    
Events Rain    
T = Trace of Precipitation, MM = Missing Value Source: NWS Daily Summary

Daily Weather History Graph

Daily Weather History Graph

Search for Another Location

Airport or City:

Astronomy

Nov. 14, 2019 Rise Set
Actual Time 6:55 AM EST 5:37 PM EST
Civil Twilight 6:30 AM EST 6:02 PM EST
Nautical Twilight 6:01 AM EST 6:31 PM EST
Astronomical Twilight 5:33 AM EST 6:59 PM EST
Moon 7:28 PM EST (11/14) 8:45 AM EST (11/14)
Length of Visible Light 11h 31m
Length of Day
10h 41m
Waning Gibbous, 95% of the Moon is Illuminated
Nov 14
Waning Gibbous
Nov 19
Last Quarter
Nov 26
New
Dec 4
First Quarter
Dec 12
Full

Hourly Weather History & Observations

Time (EST) Temp. Windchill Dew Point Humidity Pressure Visibility Wind Dir Wind Speed Gust Speed Precip Events Conditions
12:15 AM 46.0 °F 41.9 °F 42.3 °F 87% 30.18 in 10.0 mi NNE 8.1 mph - N/A   Unknown
12:55 AM 46.0 °F 41.0 °F 42.3 °F 87% 30.16 in 10.0 mi NE 10.4 mph - N/A   Unknown
1:15 AM 46.0 °F 41.9 °F 42.3 °F 87% 30.17 in 10.0 mi NNE 8.1 mph - N/A   Unknown
1:35 AM 45.9 °F 41.2 °F 42.4 °F 88% 30.17 in 10.0 mi NNE 9.2 mph - N/A   Unknown
1:55 AM 46.0 °F 41.9 °F 42.4 °F 87% 30.16 in - NNE 8.1 mph - N/A   Unknown
2:15 AM 45.7 °F 41.5 °F 41.9 °F 87% 30.16 in 10.0 mi NNE 8.1 mph - N/A   Unknown
2:35 AM 45.7 °F 40.6 °F 41.7 °F 86% 30.16 in 10.0 mi NNE 10.4 mph - N/A   Unknown
3:35 AM 45.9 °F 42.3 °F 42.1 °F 87% 30.16 in 10.0 mi NE 6.9 mph - N/A   Unknown
3:55 AM 46.2 °F 41.2 °F 42.6 °F 87% 30.17 in 10.0 mi NE 10.4 mph - N/A   Unknown
4:35 AM 46.4 °F 41.9 °F 43.0 °F 88% 30.17 in 10.0 mi NNE 9.2 mph 16.1 mph N/A   Unknown
4:55 AM 46.8 °F - 43.2 °F 87% 30.17 in 10.0 mi NNE 9.2 mph - N/A   Unknown
5:15 AM 46.8 °F - 43.0 °F 87% 30.16 in 10.0 mi NE 9.2 mph - N/A   Unknown
5:35 AM 47.1 °F - 43.2 °F 86% 30.17 in 10.0 mi NNE 10.4 mph - N/A   Unknown
5:55 AM 47.1 °F - 43.3 °F 87% 30.17 in 10.0 mi NE 10.4 mph - N/A   Unknown
6:15 AM 47.3 °F - 43.5 °F 87% 30.18 in 10.0 mi NE 9.2 mph - N/A   Unknown
6:35 AM 47.3 °F - 43.5 °F 87% 30.18 in 10.0 mi NE 8.1 mph - N/A   Unknown
6:55 AM 47.5 °F - 43.7 °F 87% 30.18 in 10.0 mi NE 9.2 mph - N/A   Unknown
7:15 AM 47.7 °F - 43.9 °F 87% 30.18 in 10.0 mi NE 11.5 mph - N/A   Unknown
7:35 AM 47.8 °F - 44.1 °F 87% 30.18 in 10.0 mi NE 10.4 mph - N/A   Unknown
7:55 AM 48.9 °F - 44.6 °F 85% 30.19 in 10.0 mi NE 11.5 mph - N/A   Unknown
8:15 AM 49.8 °F - 45.3 °F 84% 30.18 in 10.0 mi NE 8.1 mph 17.3 mph N/A   Unknown
8:35 AM 50.7 °F - 46.2 °F 85% 30.18 in 10.0 mi NE 6.9 mph - N/A   Unknown
8:55 AM 52.2 °F - 47.3 °F 83% 30.18 in 10.0 mi NE 5.8 mph - N/A   Unknown
9:15 AM 52.9 °F - 48.2 °F 84% 30.18 in 10.0 mi ENE 5.8 mph - N/A   Unknown
9:35 AM 54.3 °F - 49.3 °F 83% 30.19 in - NE 8.1 mph - N/A   Unknown
9:55 AM 55.4 °F - 49.8 °F 81% 30.19 in 10.0 mi NE 9.2 mph - N/A   Unknown
10:15 AM 56.3 °F - 50.2 °F 80% 30.20 in 10.0 mi NNE 10.4 mph - N/A   Unknown
10:35 AM 57.0 °F - 50.5 °F 79% 30.19 in 10.0 mi NNE 9.2 mph - N/A   Unknown
10:55 AM 57.2 °F - 50.5 °F 78% 30.19 in 10.0 mi NE 9.2 mph - N/A   Unknown
11:15 AM 57.6 °F - 51.3 °F 79% 30.18 in 10.0 mi NE 6.9 mph - N/A   Unknown
11:35 AM 57.4 °F - 52.5 °F 84% 30.17 in 10.0 mi NE 8.1 mph - N/A Rain Light Rain
11:55 AM 59.0 °F - 52.3 °F 79% 30.16 in 10.0 mi NE 8.1 mph - N/A   Unknown
12:15 PM 59.9 °F - 52.5 °F 77% 30.14 in 10.0 mi NE 12.7 mph - N/A   Unknown
12:35 PM 60.1 °F - 52.7 °F 77% 30.14 in 10.0 mi NNE 10.4 mph - N/A   Unknown
12:55 PM 60.4 °F - 52.9 °F 76% 30.13 in 10.0 mi North 11.5 mph - N/A   Unknown
1:15 PM 59.7 °F - 53.6 °F 80% 30.14 in 7.0 mi NNW 9.2 mph - N/A Rain Rain
1:35 PM 57.2 °F - 55.0 °F 92% 30.14 in 4.0 mi North 5.8 mph - 0.05 in Rain Rain
1:55 PM 57.0 °F - 55.6 °F 95% 30.13 in 4.0 mi NNE 8.1 mph - 0.06 in Rain Light Rain
2:15 PM 56.8 °F - 55.4 °F 95% 30.12 in 4.0 mi NNE 9.2 mph - N/A Rain Light Rain
2:35 PM 55.9 °F - 54.9 °F 96% 30.12 in 2.5 mi North 10.4 mph - 0.02 in Rain Light Rain
2:55 PM 55.4 °F - 54.5 °F 97% 30.11 in 3.0 mi NNE 10.4 mph - 0.04 in Rain Light Rain
3:35 PM 54.7 °F - 54.0 °F 97% 30.11 in 5.0 mi North 11.5 mph - 0.07 in Rain Light Rain
3:55 PM 54.1 °F - 53.4 °F 97% 30.10 in 10.0 mi NNE 12.7 mph - 0.07 in   Unknown
4:15 PM 54.0 °F - 53.2 °F 97% 30.10 in 10.0 mi NNE 9.2 mph - N/A Rain Light Rain
4:55 PM 53.6 °F - 53.6 °F 100% 30.10 in 3.0 mi NE 8.1 mph - 0.09 in Rain Rain
5:15 PM 54.3 °F - 53.8 °F 98% 30.09 in 3.5 mi NNE 11.5 mph 17.3 mph 0.06 in Rain Rain
5:55 PM 54.1 °F - 53.6 °F 98% 30.10 in 2.5 mi NNE 12.7 mph - 0.16 in Rain Heavy Rain
6:15 PM 54.0 °F - 53.4 °F 98% 30.10 in 3.0 mi NNE 6.9 mph - 0.06 in Rain Rain
6:35 PM 54.0 °F - 53.6 °F 99% 30.10 in 5.0 mi NE 9.2 mph - 0.09 in Rain Rain
6:55 PM 54.1 °F - 53.6 °F 98% 30.10 in 7.0 mi NE 8.1 mph - 0.12 in Rain Light Rain
7:15 PM 54.0 °F - 53.4 °F 98% 30.10 in 5.0 mi NE 6.9 mph - 0.01 in Rain Light Rain
7:35 PM 54.1 °F - 53.6 °F 98% 30.09 in 7.0 mi NE 8.1 mph - 0.04 in Rain Rain
7:55 PM 54.1 °F - 53.6 °F 98% 30.09 in 5.0 mi NE 6.9 mph - 0.06 in Rain Rain
8:15 PM 54.3 °F - 53.8 °F 98% 30.09 in 10.0 mi NE 8.1 mph - 0.01 in Rain Light Rain
8:55 PM 54.7 °F - 54.1 °F 98% 30.10 in 10.0 mi NNE 9.2 mph - 0.03 in Rain Light Rain
9:15 PM 54.7 °F - 54.1 °F 98% 30.09 in 10.0 mi NNE 9.2 mph - N/A Rain Light Rain
9:35 PM 54.5 °F - 54.1 °F 99% 30.09 in 5.0 mi NNE 6.9 mph - 0.02 in Rain Rain
10:35 PM 53.8 °F - 53.4 °F 99% 30.11 in 5.0 mi North 6.9 mph - 0.11 in Rain Heavy Rain
10:55 PM 53.6 °F - 53.6 °F 100% 30.10 in 4.0 mi NNE 8.1 mph - 0.23 in Rain Heavy Rain
11:35 PM 53.2 °F - 52.7 °F 98% 30.07 in 3.5 mi NNE 11.5 mph - 0.14 in Rain Heavy Rain